Location: Chmeln�
(49.6483°N, 14.9871°E)
Time: 03:03:44
(UTC+00:00)

Cosmos 2084 Rocket - Pass Details

Date: 18 September 2020
Orbit: 546 x 635 km, 62.8° (Epoch: 24 October)

Event Time Altitude Azimuth Distance (km) Brightness Sun altitude
Rises 17:30:38 0° 315° (NW) 2,847 7.9 -4.8°
Reaches altitude 10° 17:32:52 10° 315° (NW) 1,956 7.1 -5.1°
Maximum altitude 17:37:18 82° 229° (SW) 627 3.7 -5.9°
Drops below altitude 10° 17:41:50 10° 142° (SE) 1,992 5.7 -6.6°
Enters shadow 17:43:53 - 141° (SE) 2,808 6.5 -6.9°
